When you browse on this site, cookies collect data to enhance your experience and personalize the content and advertising you see.
Visit our Privacy Policy to learn more. By continuing to use the site, you agree to this use of cookies and data.
  • In United Kingdom
  • List of Countries
  • For 7 days
  • Water Temperature
  • Weather Map
  • Weather Widgets
  • user-avatar
    Login

    Hourly Weather Calan

    Today, 15 September, Sunday

    Time Temperature Precipitation Wind Pressure Humidity
    00:00 +18°C° 0 mm 1 mps 743 mmHg 74%
    01:00 +16°C° 0 mm 1 mps 743 mmHg 77%
    02:00 +15°C° 0 mm 1 mps 743 mmHg 80%
    03:00 +15°C° 0 mm 1 mps 743 mmHg 80%
    04:00 +15°C° 0 mm 1 mps 743 mmHg 81%
    05:00 +14°C° 0 mm 1 mps 743 mmHg 81%
    06:00 +16°C° 0 mm 1 mps 743 mmHg 75%
    07:00 +18°C° 0 mm 1 mps 744 mmHg 70%
    08:00 +18°C° 0 mm 0 mps 744 mmHg 64%
    09:00 +21°C° 0 mm 1 mps 744 mmHg 58%
    10:00 +23°C° 0 mm 1 mps 744 mmHg 51%
    11:00 +25°C° 0 mm 2 mps 744 mmHg 45%
    12:00 +26°C° 0 mm 2 mps 743 mmHg 42%
    13:00 +27°C° 0 mm 3 mps 743 mmHg 38%
    14:00 +28°C° 0 mm 3 mps 743 mmHg 35%
    15:00 +27°C° 0 mm 3 mps 742 mmHg 35%
    16:00 +27°C° 0 mm 3 mps 742 mmHg 36%
    17:00 +26°C° 0 mm 3 mps 741 mmHg 37%
    18:00 +24°C° 0 mm 2 mps 741 mmHg 43%
    19:00 +20°C° 0 mm 2 mps 741 mmHg 49%
    20:00 +19°C° 0 mm 1 mps 741 mmHg 56%
    21:00 +18°C° 0 mm 1 mps 741 mmHg 57%
    22:00 +18°C° 0 mm 1 mps 740 mmHg 59%
    23:00 +16°C° 0 mm 1 mps 740 mmHg 60%

    Tomorrow, 16 September, Monday

    Time Temperature Precipitation Wind Pressure Humidity
    00:00 +16°C° 0 mm 1 mps 740 mmHg 61%
    01:00 +15°C° 0 mm 1 mps 740 mmHg 62%
    02:00 +15°C° 0 mm 1 mps 740 mmHg 63%
    03:00 +15°C° 0 mm 1 mps 739 mmHg 63%
    04:00 +15°C° 0 mm 1 mps 739 mmHg 64%
    05:00 +14°C° 0 mm 1 mps 739 mmHg 64%
    06:00 +16°C° 0 mm 1 mps 739 mmHg 59%
    07:00 +17°C° 0 mm 0 mps 739 mmHg 55%
    08:00 +18°C° 0 mm 0 mps 738 mmHg 51%
    09:00 +20°C° 0 mm 0 mps 738 mmHg 44%
    10:00 +25°C° 0 mm 1 mps 738 mmHg 38%
    11:00 +27°C° 0 mm 1 mps 738 mmHg 32%
    12:00 +28°C° 0 mm 2 mps 738 mmHg 31%
    13:00 +29°C° 0 mm 2 mps 737 mmHg 29%
    14:00 +30°C° 0 mm 2 mps 737 mmHg 27%
    15:00 +29°C° 0 mm 2 mps 736 mmHg 29%
    16:00 +29°C° 0 mm 2 mps 736 mmHg 31%
    17:00 +28°C° 0 mm 2 mps 735 mmHg 33%
    18:00 +26°C° 0 mm 2 mps 735 mmHg 39%
    19:00 +23°C° 0 mm 2 mps 735 mmHg 46%
    20:00 +20°C° 0 mm 1 mps 735 mmHg 53%
    21:00 +20°C° 0 mm 1 mps 735 mmHg 53%
    22:00 +19°C° 0 mm 2 mps 735 mmHg 54%
    23:00 +19°C° 0 mm 2 mps 735 mmHg 54%

    Day after tomorrow, 17 September, Tuesday

    Time Temperature Precipitation Wind Pressure Humidity
    00:00 +19°C° 0 mm 1 mps 734 mmHg 55%
    01:00 +19°C° 0 mm 1 mps 734 mmHg 57%
    02:00 +19°C° 0 mm 1 mps 734 mmHg 58%
    03:00 +19°C° 0 mm 1 mps 734 mmHg 59%
    04:00 +19°C° 0 mm 1 mps 734 mmHg 61%
    05:00 +19°C° 0 mm 1 mps 734 mmHg 63%
    06:00 +20°C° 0 mm 1 mps 734 mmHg 60%
    07:00 +21°C° 0 mm 1 mps 734 mmHg 58%
    08:00 +23°C° 0 mm 1 mps 734 mmHg 55%
    09:00 +25°C° 0 mm 2 mps 734 mmHg 49%
    10:00 +26°C° 0 mm 3 mps 734 mmHg 42%
    11:00 +28°C° 0 mm 4 mps 734 mmHg 36%
    12:00 +29°C° 0 mm 5 mps 734 mmHg 34%
    13:00 +29°C° 0 mm 5 mps 733 mmHg 32%
    14:00 +30°C° 0 mm 6 mps 733 mmHg 30%
    15:00 +29°C° 0 mm 5 mps 733 mmHg 33%
    16:00 +27°C° 0 mm 5 mps 732 mmHg 37%
    17:00 +26°C° 0 mm 4 mps 732 mmHg 40%
    18:00 +24°C° 0 mm 3 mps 732 mmHg 47%
    19:00 +21°C° 0 mm 2 mps 732 mmHg 54%
    20:00 +20°C° 0 mm 1 mps 733 mmHg 61%
    21:00 +20°C° 0 mm 1 mps 733 mmHg 62%
    22:00 +20°C° 0 mm 1 mps 733 mmHg 64%
    23:00 +20°C° 0 mm 1 mps 733 mmHg 65%

    18 September, Wednesday

    Time Temperature Precipitation Wind Pressure Humidity
    00:00 +19°C° 0 mm 1 mps 733 mmHg 66%
    01:00 +18°C° 0 mm 2 mps 733 mmHg 67%
    02:00 +17°C° 0 mm 2 mps 734 mmHg 68%
    03:00 +17°C° 0.2 mm 2 mps 734 mmHg 70%
    04:00 +16°C° 0.2 mm 2 mps 734 mmHg 72%
    05:00 +15°C° 0.2 mm 2 mps 734 mmHg 74%
    06:00 +15°C° 0.2 mm 2 mps 735 mmHg 74%
    07:00 +14°C° 0.2 mm 3 mps 735 mmHg 73%
    08:00 +14°C° 0.2 mm 3 mps 735 mmHg 73%
    09:00 +14°C° 0 mm 3 mps 736 mmHg 66%
    10:00 +16°C° 0 mm 3 mps 737 mmHg 60%
    11:00 +17°C° 0 mm 3 mps 737 mmHg 53%
    12:00 +18°C° 0 mm 3 mps 737 mmHg 49%
    13:00 +18°C° 0 mm 3 mps 737 mmHg 44%
    14:00 +19°C° 0 mm 3 mps 737 mmHg 40%
    15:00 +18°C° 0 mm 3 mps 737 mmHg 44%
    16:00 +17°C° 0 mm 2 mps 737 mmHg 48%
    17:00 +16°C° 0 mm 2 mps 736 mmHg 52%
    18:00 +15°C° 0 mm 1 mps 737 mmHg 58%
    19:00 +13°C° 0 mm 1 mps 737 mmHg 63%
    20:00 +11°C° 0 mm 0 mps 737 mmHg 68%
    21:00 +10°C° 0 mm 0 mps 737 mmHg 69%
    22:00 +10°C° 0 mm 0 mps 737 mmHg 71%
    23:00 +9°C° 0 mm 0 mps 737 mmHg 72%

    19 September, Thursday

    Time Temperature Precipitation Wind Pressure Humidity
    00:00 +9°C° 0 mm 0 mps 737 mmHg 70%
    01:00 +10°C° 0 mm 0 mps 737 mmHg 68%
    02:00 +10°C° 0 mm 0 mps 737 mmHg 66%
    03:00 +10°C° 0 mm 0 mps 737 mmHg 65%
    04:00 +10°C° 0 mm 0 mps 737 mmHg 64%
    05:00 +10°C° 0 mm 0 mps 737 mmHg 63%
    06:00 +11°C° 0 mm 0 mps 737 mmHg 61%
    07:00 +12°C° 0 mm 0 mps 737 mmHg 59%
    08:00 +12°C° 0 mm 0 mps 737 mmHg 56%
    09:00 +15°C° 0 mm 1 mps 737 mmHg 50%
    10:00 +16°C° 0 mm 2 mps 738 mmHg 43%
    11:00 +18°C° 0 mm 2 mps 738 mmHg 37%
    12:00 +18°C° 0 mm 3 mps 738 mmHg 35%
    13:00 +19°C° 0 mm 3 mps 737 mmHg 32%
    14:00 +19°C° 0 mm 4 mps 737 mmHg 30%
    15:00 +19°C° 0 mm 3 mps 737 mmHg 31%
    16:00 +18°C° 0 mm 3 mps 737 mmHg 32%
    17:00 +18°C° 0 mm 3 mps 737 mmHg 32%
    18:00 +14°C° 0 mm 3 mps 737 mmHg 37%
    19:00 +13°C° 0 mm 2 mps 737 mmHg 42%
    20:00 +11°C° 0 mm 1 mps 737 mmHg 47%
    21:00 +10°C° 0 mm 1 mps 737 mmHg 50%
    22:00 +9°C° 0 mm 1 mps 738 mmHg 53%
    23:00 +9°C° 0 mm 1 mps 738 mmHg 56%

    20 September, Friday

    Time Temperature Precipitation Wind Pressure Humidity
    00:00 +8°C° 0 mm 1 mps 738 mmHg 57%
    01:00 +8°C° 0 mm 1 mps 738 mmHg 59%
    02:00 +7°C° 0 mm 1 mps 738 mmHg 61%
    03:00 +7°C° 0 mm 1 mps 738 mmHg 61%
    04:00 +7°C° 0 mm 1 mps 738 mmHg 62%
    05:00 +5°C° 0 mm 0 mps 738 mmHg 63%
    06:00 +7°C° 0 mm 0 mps 738 mmHg 58%
    07:00 +8°C° 0 mm 0 mps 738 mmHg 53%
    08:00 +10°C° 0 mm 0 mps 738 mmHg 48%
    09:00 +13°C° 0 mm 1 mps 738 mmHg 44%
    10:00 +14°C° 0 mm 2 mps 739 mmHg 39%
    11:00 +16°C° 0 mm 2 mps 739 mmHg 34%
    12:00 +16°C° 0 mm 3 mps 739 mmHg 34%
    13:00 +16°C° 0 mm 3 mps 738 mmHg 35%
    14:00 +17°C° 0 mm 4 mps 738 mmHg 35%
    15:00 +16°C° 0.2 mm 3 mps 738 mmHg 41%
    16:00 +14°C° 0.2 mm 3 mps 738 mmHg 48%
    17:00 +13°C° 0.2 mm 3 mps 738 mmHg 54%
    18:00 +12°C° 0.2 mm 2 mps 739 mmHg 62%
    19:00 +9°C° 0.2 mm 2 mps 740 mmHg 71%
    20:00 +8°C° 0.2 mm 1 mps 740 mmHg 79%
    21:00 +7°C° 0 mm 1 mps 740 mmHg 80%
    22:00 +7°C° 0 mm 1 mps 741 mmHg 81%
    23:00 +6°C° 0 mm 1 mps 741 mmHg 82%
    Show more